Time,TemperatureF,DewpointF,PressureIn,WindDirection,WindDirectionDegrees,WindSpeedMPH,WindSpeedGustMPH,Humidity,HourlyPrecipIn,Conditions,Clouds,dailyrainin,SoftwareType,DateUTC
2013-04-15 00:00:00,45.0,38.0,30.21,WNW,292,8.0,12.0,77,0.00,,,0.00,Rainwise IP-100,2013-04-15 04:00:00,
2013-04-15 00:05:00,45.0,38.0,30.21,NW,315,4.0,11.0,77,0.00,,,0.00,Rainwise IP-100,2013-04-15 04:05:00,
2013-04-15 00:10:00,45.0,38.0,30.22,NW,315,5.0,13.0,77,0.00,,,0.00,Rainwise IP-100,2013-04-15 04:10:00,
2013-04-15 00:11:00,45.0,38.0,30.22,NW,315,9.0,13.0,77,0.00,,,0.00,Rainwise IP-100,2013-04-15 04:11:00,
2013-04-15 00:16:00,45.0,38.0,30.22,NW,315,3.0,12.0,77,0.00,,,0.00,Rainwise IP-100,2013-04-15 04:16:00,
2013-04-15 00:17:00,45.0,38.0,30.22,NW,315,6.0,11.0,77,0.00,,,0.00,Rainwise IP-100,2013-04-15 04:17:00,
2013-04-15 00:22:00,45.0,38.0,30.21,NW,315,3.0,11.0,77,0.00,,,0.00,Rainwise IP-100,2013-04-15 04:22:00,
2013-04-15 00:27:00,45.0,38.0,30.21,NW,315,15.0,15.0,77,0.00,,,0.00,Rainwise IP-100,2013-04-15 04:27:00,
2013-04-15 00:32:00,45.0,38.0,30.21,NW,315,6.0,15.0,77,0.00,,,0.00,Rainwise IP-100,2013-04-15 04:32:00,
2013-04-15 00:37:00,45.0,38.0,30.21,NNW,337,7.0,10.0,77,0.00,,,0.00,Rainwise IP-100,2013-04-15 04:37:00,
2013-04-15 00:43:00,45.0,38.0,30.21,NNW,337,6.0,10.0,77,0.00,,,0.00,Rainwise IP-100,2013-04-15 04:43:00,
2013-04-15 00:48:00,45.0,38.0,30.21,NNW,337,8.0,14.0,77,0.00,,,0.00,Rainwise IP-100,2013-04-15 04:48:00,
2013-04-15 00:53:00,45.0,38.0,30.21,NW,315,9.0,14.0,77,0.00,,,0.00,Rainwise IP-100,2013-04-15 04:53:00,
2013-04-15 00:58:00,45.0,38.0,30.21,NW,315,2.0,10.0,77,0.00,,,0.00,Rainwise IP-100,2013-04-15 04:58:00,
2013-04-15 01:03:00,44.0,37.0,30.21,NW,315,6.0,12.0,77,0.00,,,0.00,Rainwise IP-100,2013-04-15 05:03:00,
2013-04-15 01:08:00,45.0,38.0,30.21,NNW,337,9.0,15.0,77,0.00,,,0.00,Rainwise IP-100,2013-04-15 05:08:00,
2013-04-15 01:13:00,45.0,38.0,30.22,NNW,337,7.0,12.0,77,0.00,,,0.00,Rainwise IP-100,2013-04-15 05:13:00,
2013-04-15 01:18:00,45.0,39.0,30.21,NNW,337,9.0,13.0,79,0.00,,,0.00,Rainwise IP-100,2013-04-15 05:18:00,
2013-04-15 01:23:00,44.0,37.0,30.21,NNW,337,7.0,13.0,77,0.00,,,0.00,Rainwise IP-100,2013-04-15 05:23:00,
2013-04-15 01:28:00,44.0,38.0,30.22,NNW,337,7.0,13.0,79,0.00,,,0.00,Rainwise IP-100,2013-04-15 05:28:00,
2013-04-15 01:33:00,44.0,37.0,30.22,NNW,337,8.0,12.0,77,0.00,,,0.00,Rainwise IP-100,2013-04-15 05:33:00,
2013-04-15 01:38:00,44.0,37.0,30.22,NW,315,6.0,12.0,77,0.00,,,0.00,Rainwise IP-100,2013-04-15 05:38:00,
2013-04-15 01:43:00,44.0,37.0,30.22,NNW,337,14.0,14.0,77,0.00,,,0.00,Rainwise IP-100,2013-04-15 05:43:00,
2013-04-15 01:48:00,44.0,38.0,30.23,NNW,337,10.0,15.0,79,0.00,,,0.00,Rainwise IP-100,2013-04-15 05:48:00,
2013-04-15 01:53:00,44.0,37.0,30.23,NNW,337,8.0,12.0,77,0.00,,,0.00,Rainwise IP-100,2013-04-15 05:53:00,
2013-04-15 01:59:00,44.0,38.0,30.23,NNW,337,7.0,12.0,79,0.00,,,0.00,Rainwise IP-100,2013-04-15 05:59:00,
2013-04-15 02:04:00,44.0,37.0,30.23,North,360,2.0,12.0,77,0.00,,,0.00,Rainwise IP-100,2013-04-15 06:04:00,
2013-04-15 02:09:00,44.0,38.0,30.23,WNW,292,7.0,11.0,79,0.00,,,0.00,Rainwise IP-100,2013-04-15 06:09:00,
2013-04-15 02:14:00,44.0,37.0,30.23,NW,315,5.0,10.0,77,0.00,,,0.00,Rainwise IP-100,2013-04-15 06:14:00,
2013-04-15 02:19:00,44.0,37.0,30.24,NNW,337,2.0,11.0,77,0.00,,,0.00,Rainwise IP-100,2013-04-15 06:19:00,
2013-04-15 02:24:00,44.0,37.0,30.24,NNE,22,1.0,13.0,77,0.00,,,0.00,Rainwise IP-100,2013-04-15 06:24:00,
2013-04-15 02:29:00,44.0,37.0,30.23,North,360,4.0,9.0,77,0.00,,,0.00,Rainwise IP-100,2013-04-15 06:29:00,
2013-04-15 02:34:00,44.0,37.0,30.23,NNW,337,9.0,13.0,77,0.00,,,0.00,Rainwise IP-100,2013-04-15 06:34:00,
2013-04-15 02:39:00,44.0,37.0,30.23,NNW,337,7.0,13.0,77,0.00,,,0.00,Rainwise IP-100,2013-04-15 06:39:00,
2013-04-15 02:44:00,43.0,37.0,30.23,NNW,337,4.0,10.0,77,0.00,,,0.00,Rainwise IP-100,2013-04-15 06:44:00,
2013-04-15 02:49:00,43.0,37.0,30.24,NNW,337,6.0,11.0,77,0.00,,,0.00,Rainwise IP-100,2013-04-15 06:49:00,
2013-04-15 02:54:00,44.0,37.0,30.24,NNW,337,15.0,15.0,77,0.00,,,0.00,Rainwise IP-100,2013-04-15 06:54:00,
2013-04-15 02:59:00,43.0,37.0,30.24,NNW,337,6.0,15.0,77,0.00,,,0.00,Rainwise IP-100,2013-04-15 06:59:00,
2013-04-15 03:05:00,43.0,37.0,30.24,WNW,292,9.0,10.0,77,0.00,,,0.00,Rainwise IP-100,2013-04-15 07:05:00,
2013-04-15 03:41:00,43.0,37.0,30.25,NNW,337,7.0,13.0,77,0.00,,,0.00,Rainwise IP-100,2013-04-15 07:41:00,
2013-04-15 03:46:00,43.0,37.0,30.25,North,360,4.0,13.0,77,0.00,,,0.00,Rainwise IP-100,2013-04-15 07:46:00,
2013-04-15 03:48:00,43.0,37.0,30.25,NNW,337,8.0,13.0,77,0.00,,,0.00,Rainwise IP-100,2013-04-15 07:48:00,
2013-04-15 03:49:00,43.0,37.0,30.25,NNW,337,7.0,13.0,77,0.00,,,0.00,Rainwise IP-100,2013-04-15 07:49:00,
2013-04-15 03:54:00,43.0,37.0,30.25,NNW,337,5.0,13.0,77,0.00,,,0.00,Rainwise IP-100,2013-04-15 07:54:00,
2013-04-15 03:56:00,43.0,37.0,30.25,NNE,22,4.0,10.0,77,0.00,,,0.00,Rainwise IP-100,2013-04-15 07:56:00,
2013-04-15 04:01:00,43.0,37.0,30.26,North,360,7.0,11.0,77,0.00,,,0.00,Rainwise IP-100,2013-04-15 08:01:00,
2013-04-15 04:06:00,43.0,37.0,30.26,NNW,337,3.0,12.0,77,0.00,,,0.00,Rainwise IP-100,2013-04-15 08:06:00,
2013-04-15 04:11:00,43.0,37.0,30.26,NNW,337,13.0,13.0,77,0.00,,,0.00,Rainwise IP-100,2013-04-15 08:11:00,
2013-04-15 04:17:00,43.0,37.0,30.26,North,360,3.0,13.0,77,0.00,,,0.00,Rainwise IP-100,2013-04-15 08:17:00,
2013-04-15 04:22:00,43.0,37.0,30.26,NNW,337,3.0,12.0,77,0.00,,,0.00,Rainwise IP-100,2013-04-15 08:22:00,
2013-04-15 04:27:00,43.0,37.0,30.26,NNW,337,5.0,10.0,77,0.00,,,0.00,Rainwise IP-100,2013-04-15 08:27:00,
2013-04-15 04:31:00,43.0,37.0,30.26,NNW,337,1.0,13.0,77,0.00,,,0.00,Rainwise IP-100,2013-04-15 08:31:00,
2013-04-15 04:36:00,43.0,37.0,30.26,North,360,1.0,14.0,77,0.00,,,0.00,Rainwise IP-100,2013-04-15 08:36:00,
2013-04-15 04:40:00,43.0,37.0,30.26,North,360,5.0,14.0,77,0.00,,,0.00,Rainwise IP-100,2013-04-15 08:40:00,
2013-04-15 04:41:00,43.0,37.0,30.26,North,360,13.0,14.0,77,0.00,,,0.00,Rainwise IP-100,2013-04-15 08:41:00,
2013-04-15 04:46:00,43.0,37.0,30.26,NNE,22,8.0,13.0,77,0.00,,,0.00,Rainwise IP-100,2013-04-15 08:46:00,
2013-04-15 04:51:00,43.0,36.0,30.26,NNW,337,7.0,14.0,76,0.00,,,0.00,Rainwise IP-100,2013-04-15 08:51:00,
2013-04-15 04:56:00,43.0,36.0,30.26,NNE,22,6.0,12.0,76,0.00,,,0.00,Rainwise IP-100,2013-04-15 08:56:00,
2013-04-15 05:01:00,43.0,36.0,30.26,North,360,5.0,17.0,76,0.00,,,0.00,Rainwise IP-100,2013-04-15 09:01:00,
2013-04-15 05:07:00,43.0,36.0,30.26,NNE,22,9.0,13.0,76,0.00,,,0.00,Rainwise IP-100,2013-04-15 09:07:00,
2013-04-15 05:12:00,43.0,36.0,30.26,North,360,6.0,12.0,76,0.00,,,0.00,Rainwise IP-100,2013-04-15 09:12:00,
2013-04-15 05:17:00,43.0,36.0,30.26,North,360,6.0,14.0,76,0.00,,,0.00,Rainwise IP-100,2013-04-15 09:17:00,
2013-04-15 05:22:00,43.0,36.0,30.26,North,360,6.0,14.0,76,0.00,,,0.00,Rainwise IP-100,2013-04-15 09:22:00,
2013-04-15 05:27:00,43.0,36.0,30.26,North,360,5.0,12.0,76,0.00,,,0.00,Rainwise IP-100,2013-04-15 09:27:00,
2013-04-15 05:32:00,43.0,36.0,30.28,North,360,2.0,13.0,76,0.00,,,0.00,Rainwise IP-100,2013-04-15 09:32:00,
2013-04-15 05:37:00,43.0,36.0,30.28,North,360,0.0,11.0,76,0.00,,,0.00,Rainwise IP-100,2013-04-15 09:37:00,
2013-04-15 05:42:00,43.0,36.0,30.28,NNE,22,7.0,10.0,76,0.00,,,0.00,Rainwise IP-100,2013-04-15 09:42:00,
2013-04-15 05:47:00,43.0,36.0,30.28,North,360,3.0,9.0,76,0.00,,,0.00,Rainwise IP-100,2013-04-15 09:47:00,
2013-04-15 05:52:00,42.0,35.0,30.29,NNE,22,2.0,9.0,75,0.00,,,0.00,Rainwise IP-100,2013-04-15 09:52:00,
2013-04-15 05:57:00,43.0,36.0,30.29,NNW,337,0.0,7.0,76,0.00,,,0.00,Rainwise IP-100,2013-04-15 09:57:00,
2013-04-15 06:02:00,43.0,36.0,30.30,East,90,2.0,11.0,76,0.00,,,0.00,Rainwise IP-100,2013-04-15 10:02:00,
2013-04-15 06:07:00,43.0,36.0,30.30,North,360,2.0,9.0,76,0.00,,,0.00,Rainwise IP-100,2013-04-15 10:07:00,
2013-04-15 06:12:00,43.0,36.0,30.31,North,360,0.0,7.0,76,0.00,,,0.00,Rainwise IP-100,2013-04-15 10:12:00,
2013-04-15 06:17:00,43.0,36.0,30.31,NNE,22,7.0,10.0,76,0.00,,,0.00,Rainwise IP-100,2013-04-15 10:17:00,
2013-04-15 06:22:00,43.0,36.0,30.32,NNE,22,6.0,8.0,76,0.00,,,0.00,Rainwise IP-100,2013-04-15 10:22:00,
2013-04-15 06:28:00,43.0,36.0,30.32,NNE,22,1.0,10.0,75,0.00,,,0.00,Rainwise IP-100,2013-04-15 10:28:00,
2013-04-15 06:33:00,43.0,36.0,30.32,NE,45,6.0,9.0,76,0.00,,,0.00,Rainwise IP-100,2013-04-15 10:33:00,
2013-04-15 06:38:00,43.0,36.0,30.32,North,360,6.0,9.0,76,0.00,,,0.00,Rainwise IP-100,2013-04-15 10:38:00,
2013-04-15 06:43:00,43.0,36.0,30.32,North,360,2.0,7.0,76,0.00,,,0.00,Rainwise IP-100,2013-04-15 10:43:00,
2013-04-15 06:48:00,43.0,36.0,30.33,ENE,67,3.0,7.0,76,0.00,,,0.00,Rainwise IP-100,2013-04-15 10:48:00,
2013-04-15 06:53:00,43.0,36.0,30.33,NNE,22,7.0,9.0,76,0.00,,,0.00,Rainwise IP-100,2013-04-15 10:53:00,
2013-04-15 06:58:00,43.0,36.0,30.33,ENE,67,4.0,9.0,76,0.00,,,0.00,Rainwise IP-100,2013-04-15 10:58:00,
2013-04-15 07:03:00,44.0,37.0,30.34,NNE,22,3.0,8.0,76,0.00,,,0.00,Rainwise IP-100,2013-04-15 11:03:00,
2013-04-15 07:08:00,44.0,38.0,30.35,NNE,22,2.0,9.0,78,0.00,,,0.00,Rainwise IP-100,2013-04-15 11:08:00,
2013-04-15 07:13:00,44.0,37.0,30.35,ENE,67,4.0,10.0,76,0.00,,,0.00,Rainwise IP-100,2013-04-15 11:13:00,
2013-04-15 07:18:00,44.0,38.0,30.36,North,360,0.0,11.0,78,0.00,,,0.00,Rainwise IP-100,2013-04-15 11:18:00,
2013-04-15 07:23:00,44.0,37.0,30.36,NNE,22,7.0,10.0,76,0.00,,,0.00,Rainwise IP-100,2013-04-15 11:23:00,
2013-04-15 07:28:00,44.0,38.0,30.36,NNE,22,3.0,7.0,78,0.00,,,0.00,Rainwise IP-100,2013-04-15 11:28:00,
2013-04-15 07:33:00,44.0,37.0,30.36,North,360,1.0,9.0,76,0.00,,,0.00,Rainwise IP-100,2013-04-15 11:33:00,
2013-04-15 07:39:00,45.0,38.0,30.36,NNE,22,8.0,9.0,78,0.00,,,0.00,Rainwise IP-100,2013-04-15 11:39:00,
2013-04-15 07:44:00,45.0,38.0,30.36,ENE,67,2.0,8.0,76,0.00,,,0.00,Rainwise IP-100,2013-04-15 11:44:00,
2013-04-15 07:49:00,45.0,38.0,30.36,NE,45,0.0,7.0,76,0.00,,,0.00,Rainwise IP-100,2013-04-15 11:49:00,
2013-04-15 07:54:00,45.0,38.0,30.36,NNE,22,4.0,9.0,76,0.00,,,0.00,Rainwise IP-100,2013-04-15 11:54:00,
2013-04-15 07:59:00,45.0,38.0,30.36,NE,45,6.0,8.0,77,0.00,,,0.00,Rainwise IP-100,2013-04-15 11:59:00,
2013-04-15 08:04:00,45.0,38.0,30.36,NE,45,10.0,10.0,76,0.00,,,0.00,Rainwise IP-100,2013-04-15 12:04:00,
2013-04-15 08:10:00,45.0,38.0,30.36,NE,45,7.0,10.0,76,0.00,,,0.00,Rainwise IP-100,2013-04-15 12:10:00,
2013-04-15 08:15:00,45.0,38.0,30.36,NE,45,4.0,10.0,76,0.00,,,0.00,Rainwise IP-100,2013-04-15 12:15:00,
2013-04-15 08:20:00,45.0,38.0,30.36,NE,45,6.0,10.0,76,0.00,,,0.00,Rainwise IP-100,2013-04-15 12:20:00,
2013-04-15 08:25:00,45.0,38.0,30.36,North,360,0.0,10.0,76,0.00,,,0.00,Rainwise IP-100,2013-04-15 12:25:00,
2013-04-15 08:30:00,45.0,38.0,30.36,ENE,67,7.0,10.0,76,0.00,,,0.00,Rainwise IP-100,2013-04-15 12:30:00,
2013-04-15 08:35:00,46.0,39.0,30.36,NNE,22,2.0,10.0,76,0.00,,,0.00,Rainwise IP-100,2013-04-15 12:35:00,
2013-04-15 08:40:00,46.0,39.0,30.36,East,90,6.0,9.0,76,0.00,,,0.00,Rainwise IP-100,2013-04-15 12:40:00,
2013-04-15 08:45:00,45.0,38.0,30.36,ENE,67,6.0,11.0,76,0.00,,,0.00,Rainwise IP-100,2013-04-15 12:45:00,
2013-04-15 08:50:00,45.0,38.0,30.36,NNE,22,7.0,9.0,76,0.00,,,0.00,Rainwise IP-100,2013-04-15 12:50:00,
2013-04-15 08:55:00,46.0,39.0,30.36,ESE,112,6.0,12.0,76,0.00,,,0.00,Rainwise IP-100,2013-04-15 12:55:00,
2013-04-15 09:00:00,45.0,38.0,30.36,ENE,67,4.0,12.0,76,0.00,,,0.00,Rainwise IP-100,2013-04-15 13:00:00,
2013-04-15 09:05:00,45.0,38.0,30.36,ENE,67,3.0,11.0,76,0.00,,,0.00,Rainwise IP-100,2013-04-15 13:05:00,
2013-04-15 09:10:00,46.0,39.0,30.38,NNE,22,5.0,9.0,76,0.00,,,0.00,Rainwise IP-100,2013-04-15 13:10:00,
2013-04-15 09:15:00,46.0,39.0,30.38,ENE,67,7.0,9.0,76,0.00,,,0.00,Rainwise IP-100,2013-04-15 13:15:00,
2013-04-15 09:20:00,46.0,39.0,30.37,ESE,112,0.0,9.0,76,0.00,,,0.00,Rainwise IP-100,2013-04-15 13:20:00,
2013-04-15 09:26:00,46.0,39.0,30.37,NNE,22,3.0,8.0,76,0.00,,,0.00,Rainwise IP-100,2013-04-15 13:26:00,
2013-04-15 09:31:00,46.0,39.0,30.39,NNE,22,6.0,10.0,76,0.00,,,0.00,Rainwise IP-100,2013-04-15 13:31:00,
2013-04-15 09:36:00,46.0,39.0,30.39,NNE,22,6.0,10.0,76,0.00,,,0.00,Rainwise IP-100,2013-04-15 13:36:00,
2013-04-15 09:41:00,46.0,39.0,30.39,North,360,4.0,10.0,76,0.00,,,0.00,Rainwise IP-100,2013-04-15 13:41:00,
2013-04-15 09:46:00,46.0,39.0,30.39,NE,45,10.0,10.0,76,0.00,,,0.00,Rainwise IP-100,2013-04-15 13:46:00,
2013-04-15 09:51:00,46.0,39.0,30.40,NNE,22,6.0,10.0,76,0.00,,,0.00,Rainwise IP-100,2013-04-15 13:51:00,
2013-04-15 09:56:00,46.0,39.0,30.40,NNE,22,8.0,10.0,76,0.00,,,0.00,Rainwise IP-100,2013-04-15 13:56:00,
2013-04-15 10:02:00,46.0,39.0,30.40,NE,45,5.0,10.0,76,0.00,,,0.00,Rainwise IP-100,2013-04-15 14:02:00,
2013-04-15 10:07:00,47.0,39.0,30.40,NNE,22,4.0,10.0,76,0.00,,,0.00,Rainwise IP-100,2013-04-15 14:07:00,
2013-04-15 10:12:00,46.0,39.0,30.40,NE,45,6.0,10.0,76,0.00,,,0.00,Rainwise IP-100,2013-04-15 14:12:00,
2013-04-15 10:17:00,46.0,39.0,30.40,NE,45,9.0,10.0,76,0.00,,,0.00,Rainwise IP-100,2013-04-15 14:17:00,
2013-04-15 10:22:00,46.0,39.0,30.40,NE,45,8.0,11.0,76,0.00,,,0.00,Rainwise IP-100,2013-04-15 14:22:00,
2013-04-15 10:27:00,47.0,39.0,30.40,NE,45,5.0,10.0,76,0.00,,,0.00,Rainwise IP-100,2013-04-15 14:27:00,
2013-04-15 10:32:00,46.0,39.0,30.39,NNE,22,6.0,11.0,76,0.00,,,0.00,Rainwise IP-100,2013-04-15 14:32:00,
2013-04-15 10:37:00,46.0,39.0,30.39,NE,45,11.0,13.0,76,0.00,,,0.00,Rainwise IP-100,2013-04-15 14:37:00,
2013-04-15 10:42:00,46.0,39.0,30.39,NE,45,7.0,12.0,76,0.00,,,0.00,Rainwise IP-100,2013-04-15 14:42:00,
2013-04-15 10:47:00,47.0,39.0,30.39,NE,45,8.0,12.0,76,0.00,,,0.00,Rainwise IP-100,2013-04-15 14:47:00,
2013-04-15 10:52:00,48.0,41.0,30.39,NNE,22,7.0,11.0,77,0.00,,,0.00,Rainwise IP-100,2013-04-15 14:52:00,
2013-04-15 10:58:00,46.0,39.0,30.39,ENE,67,7.0,13.0,76,0.00,,,0.00,Rainwise IP-100,2013-04-15 14:58:00,
2013-04-15 11:03:00,47.0,39.0,30.39,East,90,6.0,12.0,76,0.00,,,0.00,Rainwise IP-100,2013-04-15 15:03:00,
2013-04-15 11:08:00,47.0,40.0,30.39,East,90,7.0,12.0,78,0.00,,,0.00,Rainwise IP-100,2013-04-15 15:08:00,
2013-04-15 11:13:00,47.0,39.0,30.39,NE,45,7.0,12.0,76,0.00,,,0.00,Rainwise IP-100,2013-04-15 15:13:00,
2013-04-15 11:18:00,48.0,42.0,30.39,NE,45,3.0,12.0,79,0.00,,,0.00,Rainwise IP-100,2013-04-15 15:18:00,
2013-04-15 11:23:00,47.0,39.0,30.39,NE,45,12.0,13.0,76,0.00,,,0.00,Rainwise IP-100,2013-04-15 15:23:00,
2013-04-15 11:28:00,48.0,42.0,30.38,NE,45,4.0,13.0,79,0.00,,,0.00,Rainwise IP-100,2013-04-15 15:28:00,
2013-04-15 11:33:00,48.0,41.0,30.38,NE,45,7.0,12.0,77,0.00,,,0.00,Rainwise IP-100,2013-04-15 15:33:00,
2013-04-15 11:38:00,49.0,43.0,30.38,NNE,22,8.0,10.0,80,0.00,,,0.00,Rainwise IP-100,2013-04-15 15:38:00,
2013-04-15 11:43:00,48.0,42.0,30.38,NNE,22,6.0,12.0,78,0.00,,,0.00,Rainwise IP-100,2013-04-15 15:43:00,
2013-04-15 11:48:00,49.0,43.0,30.38,NE,45,10.0,12.0,80,0.00,,,0.00,Rainwise IP-100,2013-04-15 15:48:00,
2013-04-15 11:53:00,50.0,43.0,30.38,North,360,2.0,12.0,78,0.00,,,0.00,Rainwise IP-100,2013-04-15 15:53:00,
2013-04-15 11:58:00,50.0,44.0,30.38,NE,45,6.0,10.0,80,0.00,,,0.00,Rainwise IP-100,2013-04-15 15:58:00,
2013-04-15 12:03:00,49.0,42.0,30.38,NE,45,7.0,11.0,78,0.00,,,0.00,Rainwise IP-100,2013-04-15 16:03:00,
2013-04-15 12:08:00,50.0,44.0,30.38,ENE,67,3.0,12.0,80,0.00,,,0.00,Rainwise IP-100,2013-04-15 16:08:00,
2013-04-15 12:14:00,50.0,43.0,30.38,North,360,4.0,9.0,78,0.00,,,0.00,Rainwise IP-100,2013-04-15 16:14:00,
2013-04-15 12:19:00,50.0,43.0,30.38,East,90,4.0,11.0,78,0.00,,,0.00,Rainwise IP-100,2013-04-15 16:19:00,
2013-04-15 12:24:00,50.0,43.0,30.38,NNE,22,8.0,10.0,78,0.00,,,0.00,Rainwise IP-100,2013-04-15 16:24:00,
2013-04-15 12:29:00,50.0,43.0,30.38,ENE,67,10.0,10.0,78,0.00,,,0.00,Rainwise IP-100,2013-04-15 16:29:00,
2013-04-15 12:34:00,51.0,45.0,30.38,ENE,67,8.0,10.0,78,0.00,,,0.00,Rainwise IP-100,2013-04-15 16:34:00,
2013-04-15 12:39:00,49.0,42.0,30.38,East,90,6.0,12.0,78,0.00,,,0.00,Rainwise IP-100,2013-04-15 16:39:00,
2013-04-15 12:44:00,50.0,43.0,30.38,ENE,67,8.0,11.0,78,0.00,,,0.00,Rainwise IP-100,2013-04-15 16:44:00,
2013-04-15 12:49:00,50.0,44.0,30.38,ENE,67,4.0,11.0,80,0.00,,,0.00,Rainwise IP-100,2013-04-15 16:49:00,
2013-04-15 12:54:00,50.0,43.0,30.38,ENE,67,5.0,11.0,78,0.00,,,0.00,Rainwise IP-100,2013-04-15 16:54:00,
2013-04-15 12:59:00,50.0,43.0,30.39,NE,45,1.0,13.0,78,0.00,,,0.00,Rainwise IP-100,2013-04-15 16:59:00,
2013-04-15 13:04:00,50.0,43.0,30.39,East,90,7.0,11.0,78,0.00,,,0.00,Rainwise IP-100,2013-04-15 17:04:00,
2013-04-15 13:09:00,50.0,43.0,30.39,East,90,6.0,11.0,78,0.00,,,0.00,Rainwise IP-100,2013-04-15 17:09:00,
2013-04-15 13:14:00,50.0,43.0,30.39,East,90,9.0,12.0,78,0.00,,,0.00,Rainwise IP-100,2013-04-15 17:14:00,
2013-04-15 13:19:00,51.0,45.0,30.39,South,180,3.0,10.0,80,0.00,,,0.00,Rainwise IP-100,2013-04-15 17:19:00,
2013-04-15 13:21:00,51.0,45.0,30.39,SE,135,6.0,10.0,80,0.00,,,0.00,Rainwise IP-100,2013-04-15 17:21:00,
2013-04-15 13:26:00,52.0,45.0,30.39,SSE,157,0.0,10.0,78,0.00,,,0.00,Rainwise IP-100,2013-04-15 17:26:00,
2013-04-15 13:30:00,50.0,43.0,30.38,East,90,6.0,12.0,78,0.00,,,0.00,Rainwise IP-100,2013-04-15 17:30:00,
2013-04-15 13:35:00,51.0,45.0,30.38,SE,135,5.0,11.0,78,0.00,,,0.00,Rainwise IP-100,2013-04-15 17:35:00,
2013-04-15 13:40:00,51.0,45.0,30.40,SE,135,5.0,11.0,78,0.00,,,0.00,Rainwise IP-100,2013-04-15 17:40:00,
2013-04-15 13:45:00,51.0,45.0,30.40,SSE,157,0.0,10.0,78,0.00,,,0.00,Rainwise IP-100,2013-04-15 17:45:00,
2013-04-15 13:50:00,51.0,45.0,30.39,SW,225,1.0,12.0,78,0.00,,,0.00,Rainwise IP-100,2013-04-15 17:50:00,
2013-04-15 13:55:00,51.0,45.0,30.39,East,90,7.0,9.0,78,0.00,,,0.00,Rainwise IP-100,2013-04-15 17:55:00,
2013-04-15 14:01:00,52.0,45.0,30.39,SE,135,1.0,10.0,78,0.00,,,0.00,Rainwise IP-100,2013-04-15 18:01:00,
2013-04-15 14:06:00,50.0,43.0,30.39,ESE,112,9.0,14.0,78,0.00,,,0.00,Rainwise IP-100,2013-04-15 18:06:00,
2013-04-15 14:11:00,51.0,45.0,30.40,SE,135,6.0,11.0,78,0.00,,,0.00,Rainwise IP-100,2013-04-15 18:11:00,
2013-04-15 14:16:00,50.0,43.0,30.40,ESE,112,6.0,12.0,78,0.00,,,0.00,Rainwise IP-100,2013-04-15 18:16:00,
2013-04-15 14:21:00,50.0,43.0,30.39,SE,135,8.0,9.0,79,0.00,,,0.00,Rainwise IP-100,2013-04-15 18:21:00,
2013-04-15 14:26:00,51.0,45.0,30.39,SE,135,4.0,13.0,78,0.00,,,0.00,Rainwise IP-100,2013-04-15 18:26:00,
2013-04-15 14:29:00,51.0,45.0,30.39,SE,135,12.0,13.0,80,0.00,,,0.00,Rainwise IP-100,2013-04-15 18:29:00,
2013-04-15 14:31:00,49.0,43.0,30.39,SE,135,6.0,13.0,79,0.00,,,0.00,Rainwise IP-100,2013-04-15 18:31:00,
2013-04-15 14:37:00,50.0,43.0,30.39,SE,135,3.0,10.0,79,0.00,,,0.00,Rainwise IP-100,2013-04-15 18:37:00,
2013-04-15 14:42:00,51.0,45.0,30.39,West,270,4.0,10.0,79,0.00,,,0.00,Rainwise IP-100,2013-04-15 18:42:00,
2013-04-15 14:47:00,50.0,43.0,30.39,SE,135,5.0,9.0,79,0.00,,,0.00,Rainwise IP-100,2013-04-15 18:47:00,
2013-04-15 14:52:00,50.0,43.0,30.39,East,90,8.0,10.0,79,0.00,,,0.00,Rainwise IP-100,2013-04-15 18:52:00,
2013-04-15 14:57:00,50.0,43.0,30.39,South,180,4.0,10.0,79,0.00,,,0.00,Rainwise IP-100,2013-04-15 18:57:00,
2013-04-15 15:02:00,50.0,43.0,30.39,SSE,157,2.0,13.0,79,0.00,,,0.00,Rainwise IP-100,2013-04-15 19:02:00,
2013-04-15 15:07:00,49.0,43.0,30.39,South,180,5.0,12.0,79,0.00,,,0.00,Rainwise IP-100,2013-04-15 19:07:00,
2013-04-15 15:12:00,50.0,43.0,30.39,SE,135,12.0,13.0,79,0.00,,,0.00,Rainwise IP-100,2013-04-15 19:12:00,
2013-04-15 15:17:00,49.0,43.0,30.39,SE,135,6.0,14.0,79,0.00,,,0.00,Rainwise IP-100,2013-04-15 19:17:00,
2013-04-15 15:22:00,49.0,43.0,30.39,SE,135,12.0,12.0,79,0.00,,,0.00,Rainwise IP-100,2013-04-15 19:22:00,
2013-04-15 15:27:00,49.0,43.0,30.39,SE,135,5.0,13.0,79,0.00,,,0.00,Rainwise IP-100,2013-04-15 19:27:00,
2013-04-15 15:32:00,49.0,43.0,30.39,SE,135,6.0,13.0,79,0.00,,,0.00,Rainwise IP-100,2013-04-15 19:32:00,
2013-04-15 15:37:00,50.0,43.0,30.39,SE,135,4.0,12.0,79,0.00,,,0.00,Rainwise IP-100,2013-04-15 19:37:00,
2013-04-15 15:42:00,49.0,43.0,30.38,ESE,112,9.0,14.0,79,0.00,,,0.00,Rainwise IP-100,2013-04-15 19:42:00,
2013-04-15 15:47:00,49.0,43.0,30.38,SE,135,4.0,13.0,79,0.00,,,0.00,Rainwise IP-100,2013-04-15 19:47:00,
2013-04-15 15:53:00,50.0,43.0,30.38,SE,135,7.0,11.0,79,0.00,,,0.00,Rainwise IP-100,2013-04-15 19:53:00,
2013-04-15 15:58:00,50.0,44.0,30.38,ENE,67,4.0,11.0,80,0.00,,,0.00,Rainwise IP-100,2013-04-15 19:58:00,
2013-04-15 16:02:00,49.0,43.0,30.38,East,90,9.0,15.0,79,0.00,,,0.00,Rainwise IP-100,2013-04-15 20:02:00,
2013-04-15 16:07:00,50.0,43.0,30.38,SE,135,2.0,12.0,79,0.00,,,0.00,Rainwise IP-100,2013-04-15 20:07:00,
2013-04-15 16:11:00,50.0,43.0,30.37,SE,135,6.0,10.0,79,0.00,,,0.00,Rainwise IP-100,2013-04-15 20:11:00,
2013-04-15 16:17:00,49.0,43.0,30.37,ESE,112,7.0,15.0,79,0.00,,,0.00,Rainwise IP-100,2013-04-15 20:17:00,
2013-04-15 16:22:00,49.0,43.0,30.37,SE,135,11.0,13.0,79,0.00,,,0.00,Rainwise IP-100,2013-04-15 20:22:00,
2013-04-15 16:27:00,49.0,43.0,30.37,South,180,2.0,13.0,79,0.00,,,0.00,Rainwise IP-100,2013-04-15 20:27:00,
2013-04-15 16:32:00,49.0,43.0,30.37,SE,135,9.0,13.0,79,0.00,,,0.00,Rainwise IP-100,2013-04-15 20:32:00,
2013-04-15 16:37:00,49.0,43.0,30.37,SSE,157,8.0,11.0,79,0.00,,,0.00,Rainwise IP-100,2013-04-15 20:37:00,
2013-04-15 16:42:00,49.0,43.0,30.37,SSW,202,0.0,14.0,79,0.00,,,0.00,Rainwise IP-100,2013-04-15 20:42:00,
2013-04-15 16:46:00,49.0,43.0,30.37,SSW,202,2.0,11.0,79,0.00,,,0.00,Rainwise IP-100,2013-04-15 20:46:00,
2013-04-15 16:51:00,49.0,43.0,30.37,SE,135,3.0,9.0,79,0.00,,,0.00,Rainwise IP-100,2013-04-15 20:51:00,
2013-04-15 16:57:00,48.0,42.0,30.37,SE,135,1.0,13.0,79,0.00,,,0.00,Rainwise IP-100,2013-04-15 20:57:00,
2013-04-15 17:02:00,48.0,42.0,30.37,SE,135,10.0,12.0,79,0.00,,,0.00,Rainwise IP-100,2013-04-15 21:02:00,
2013-04-15 17:07:00,48.0,42.0,30.37,SE,135,9.0,11.0,79,0.00,,,0.00,Rainwise IP-100,2013-04-15 21:07:00,
2013-04-15 17:12:00,48.0,42.0,30.37,South,180,5.0,10.0,79,0.00,,,0.00,Rainwise IP-100,2013-04-15 21:12:00,
2013-04-15 17:17:00,48.0,42.0,30.37,SE,135,0.0,12.0,79,0.00,,,0.00,Rainwise IP-100,2013-04-15 21:17:00,
2013-04-15 17:22:00,48.0,42.0,30.38,ESE,112,5.0,11.0,79,0.00,,,0.00,Rainwise IP-100,2013-04-15 21:22:00,
2013-04-15 17:27:00,48.0,42.0,30.38,South,180,0.0,10.0,79,0.00,,,0.00,Rainwise IP-100,2013-04-15 21:27:00,
2013-04-15 17:32:00,48.0,42.0,30.38,SSE,157,3.0,11.0,79,0.00,,,0.00,Rainwise IP-100,2013-04-15 21:32:00,
2013-04-15 17:37:00,48.0,42.0,30.38,ESE,112,0.0,8.0,79,0.00,,,0.00,Rainwise IP-100,2013-04-15 21:37:00,
2013-04-15 17:42:00,48.0,42.0,30.38,SSW,202,7.0,7.0,79,0.00,,,0.00,Rainwise IP-100,2013-04-15 21:42:00,
2013-04-15 17:47:00,48.0,42.0,30.38,SSW,202,3.0,9.0,79,0.00,,,0.00,Rainwise IP-100,2013-04-15 21:47:00,
2013-04-15 17:52:00,47.0,40.0,30.38,SSW,202,1.0,11.0,78,0.00,,,0.00,Rainwise IP-100,2013-04-15 21:52:00,
2013-04-15 17:57:00,48.0,42.0,30.38,South,180,8.0,8.0,79,0.00,,,0.00,Rainwise IP-100,2013-04-15 21:57:00,
2013-04-15 18:02:00,47.0,40.0,30.38,South,180,4.0,9.0,78,0.00,,,0.00,Rainwise IP-100,2013-04-15 22:02:00,
2013-04-15 18:07:00,48.0,42.0,30.38,SSE,157,1.0,9.0,79,0.00,,,0.00,Rainwise IP-100,2013-04-15 22:07:00,
2013-04-15 18:13:00,47.0,40.0,30.38,SE,135,8.0,10.0,78,0.00,,,0.00,Rainwise IP-100,2013-04-15 22:13:00,
2013-04-15 18:18:00,47.0,40.0,30.38,SE,135,3.0,10.0,78,0.00,,,0.00,Rainwise IP-100,2013-04-15 22:18:00,
2013-04-15 18:23:00,47.0,40.0,30.38,South,180,6.0,9.0,78,0.00,,,0.00,Rainwise IP-100,2013-04-15 22:23:00,
2013-04-15 18:28:00,47.0,40.0,30.38,SE,135,9.0,12.0,78,0.00,,,0.00,Rainwise IP-100,2013-04-15 22:28:00,
2013-04-15 18:33:00,47.0,40.0,30.38,ESE,112,1.0,10.0,78,0.00,,,0.00,Rainwise IP-100,2013-04-15 22:33:00,
2013-04-15 18:38:00,47.0,40.0,30.39,SE,135,6.0,10.0,79,0.00,,,0.00,Rainwise IP-100,2013-04-15 22:38:00,
2013-04-15 18:43:00,47.0,40.0,30.39,SSW,202,8.0,10.0,78,0.00,,,0.00,Rainwise IP-100,2013-04-15 22:43:00,
2013-04-15 18:48:00,46.0,39.0,30.39,ESE,112,3.0,10.0,79,0.00,,,0.00,Rainwise IP-100,2013-04-15 22:48:00,
2013-04-15 18:53:00,46.0,39.0,30.39,South,180,3.0,8.0,78,0.00,,,0.00,Rainwise IP-100,2013-04-15 22:53:00,
2013-04-15 18:58:00,46.0,39.0,30.39,SE,135,7.0,9.0,79,0.00,,,0.00,Rainwise IP-100,2013-04-15 22:58:00,
2013-04-15 19:03:00,46.0,39.0,30.39,South,180,1.0,9.0,78,0.00,,,0.00,Rainwise IP-100,2013-04-15 23:03:00,
2013-04-15 19:08:00,45.0,39.0,30.40,SE,135,3.0,7.0,79,0.00,,,0.00,Rainwise IP-100,2013-04-15 23:08:00,
2013-04-15 19:13:00,45.0,38.0,30.40,ESE,112,4.0,9.0,77,0.00,,,0.00,Rainwise IP-100,2013-04-15 23:13:00,
2013-04-15 19:18:00,45.0,38.0,30.40,South,180,1.0,9.0,78,0.00,,,0.00,Rainwise IP-100,2013-04-15 23:18:00,
2013-04-15 19:23:00,45.0,38.0,30.40,SE,135,1.0,7.0,77,0.00,,,0.00,Rainwise IP-100,2013-04-15 23:23:00,
2013-04-15 19:29:00,45.0,38.0,30.40,SE,135,7.0,7.0,78,0.00,,,0.00,Rainwise IP-100,2013-04-15 23:29:00,
2013-04-15 19:34:00,44.0,37.0,30.40,SE,135,2.0,8.0,76,0.00,,,0.00,Rainwise IP-100,2013-04-15 23:34:00,
2013-04-15 19:39:00,44.0,37.0,30.41,SE,135,3.0,7.0,76,0.00,,,0.00,Rainwise IP-100,2013-04-15 23:39:00,
2013-04-15 19:44:00,44.0,37.0,30.41,SE,135,5.0,6.0,76,0.00,,,0.00,Rainwise IP-100,2013-04-15 23:44:00,
2013-04-15 19:49:00,44.0,37.0,30.41,ESE,112,0.0,8.0,77,0.00,,,0.00,Rainwise IP-100,2013-04-15 23:49:00,
2013-04-15 19:54:00,44.0,37.0,30.41,SE,135,4.0,6.0,76,0.00,,,0.00,Rainwise IP-100,2013-04-15 23:54:00,
2013-04-15 19:59:00,43.0,36.0,30.42,SSE,157,0.0,6.0,75,0.00,,,0.00,Rainwise IP-100,2013-04-15 23:59:00,
2013-04-15 20:04:00,43.0,36.0,30.42,ENE,67,0.0,6.0,75,0.00,,,0.00,Rainwise IP-100,2013-04-16 00:04:00,
2013-04-15 20:09:00,43.0,36.0,30.42,ESE,112,1.0,5.0,74,0.00,,,0.00,Rainwise IP-100,2013-04-16 00:09:00,
2013-04-15 20:14:00,43.0,36.0,30.42,ESE,112,1.0,5.0,74,0.00,,,0.00,Rainwise IP-100,2013-04-16 00:14:00,
2013-04-15 20:19:00,43.0,36.0,30.43,SE,135,0.0,2.0,74,0.00,,,0.00,Rainwise IP-100,2013-04-16 00:19:00,
2013-04-15 20:24:00,43.0,36.0,30.43,SE,135,0.0,5.0,74,0.00,,,0.00,Rainwise IP-100,2013-04-16 00:24:00,
2013-04-15 20:29:00,43.0,36.0,30.44,SE,135,0.0,1.0,74,0.00,,,0.00,Rainwise IP-100,2013-04-16 00:29:00,
2013-04-15 20:34:00,42.0,35.0,30.44,SSW,202,1.0,2.0,73,0.00,,,0.00,Rainwise IP-100,2013-04-16 00:34:00,
2013-04-15 20:39:00,42.0,35.0,30.45,SE,135,0.0,1.0,73,0.00,,,0.00,Rainwise IP-100,2013-04-16 00:39:00,
2013-04-15 20:45:00,42.0,35.0,30.45,SE,135,0.0,1.0,73,0.00,,,0.00,Rainwise IP-100,2013-04-16 00:45:00,
2013-04-15 20:50:00,42.0,33.0,30.45,SE,135,1.0,5.0,72,0.00,,,0.00,Rainwise IP-100,2013-04-16 00:50:00,
2013-04-15 20:55:00,42.0,33.0,30.45,SE,135,2.0,4.0,72,0.00,,,0.00,Rainwise IP-100,2013-04-16 00:55:00,
2013-04-15 21:00:00,43.0,36.0,30.46,ESE,112,1.0,4.0,74,0.00,,,0.00,Rainwise IP-100,2013-04-16 01:00:00,
2013-04-15 21:05:00,42.0,33.0,30.46,SE,135,0.0,5.0,72,0.00,,,0.00,Rainwise IP-100,2013-04-16 01:05:00,
2013-04-15 21:10:00,42.0,33.0,30.46,SE,135,2.0,2.0,72,0.00,,,0.00,Rainwise IP-100,2013-04-16 01:10:00,
2013-04-15 21:15:00,42.0,33.0,30.46,SE,135,4.0,4.0,72,0.00,,,0.00,Rainwise IP-100,2013-04-16 01:15:00,
2013-04-15 21:20:00,42.0,33.0,30.46,SE,135,0.0,6.0,72,0.00,,,0.00,Rainwise IP-100,2013-04-16 01:20:00,
2013-04-15 21:25:00,42.0,33.0,30.46,SE,135,3.0,6.0,71,0.00,,,0.00,Rainwise IP-100,2013-04-16 01:25:00,
2013-04-15 21:30:00,42.0,33.0,30.46,SE,135,1.0,6.0,72,0.00,,,0.00,Rainwise IP-100,2013-04-16 01:30:00,
2013-04-15 21:35:00,42.0,33.0,30.46,East,90,2.0,6.0,71,0.00,,,0.00,Rainwise IP-100,2013-04-16 01:35:00,
2013-04-15 21:40:00,42.0,33.0,30.45,SE,135,2.0,6.0,72,0.00,,,0.00,Rainwise IP-100,2013-04-16 01:40:00,
2013-04-15 21:45:00,42.0,33.0,30.45,SE,135,0.0,4.0,71,0.00,,,0.00,Rainwise IP-100,2013-04-16 01:45:00,
2013-04-15 21:50:00,42.0,33.0,30.45,SE,135,0.0,3.0,71,0.00,,,0.00,Rainwise IP-100,2013-04-16 01:50:00,
2013-04-15 21:55:00,42.0,33.0,30.45,SE,135,2.0,3.0,71,0.00,,,0.00,Rainwise IP-100,2013-04-16 01:55:00,
2013-04-15 22:01:00,42.0,33.0,30.45,SE,135,0.0,4.0,71,0.00,,,0.00,Rainwise IP-100,2013-04-16 02:01:00,
2013-04-15 22:06:00,42.0,33.0,30.45,ESE,112,0.0,5.0,70,0.00,,,0.00,Rainwise IP-100,2013-04-16 02:06:00,
2013-04-15 22:11:00,42.0,33.0,30.44,SE,135,2.0,7.0,69,0.00,,,0.00,Rainwise IP-100,2013-04-16 02:11:00,
2013-04-15 22:16:00,42.0,33.0,30.44,SE,135,3.0,7.0,69,0.00,,,0.00,Rainwise IP-100,2013-04-16 02:16:00,
2013-04-15 22:21:00,42.0,33.0,30.44,SE,135,2.0,6.0,69,0.00,,,0.00,Rainwise IP-100,2013-04-16 02:21:00,
2013-04-15 22:26:00,42.0,32.0,30.44,SE,135,0.0,6.0,68,0.00,,,0.00,Rainwise IP-100,2013-04-16 02:26:00,
2013-04-15 22:31:00,42.0,32.0,30.44,SSE,157,0.0,4.0,68,0.00,,,0.00,Rainwise IP-100,2013-04-16 02:31:00,
2013-04-15 22:36:00,42.0,32.0,30.44,SE,135,1.0,6.0,68,0.00,,,0.00,Rainwise IP-100,2013-04-16 02:36:00,
2013-04-15 22:41:00,42.0,32.0,30.44,SE,135,0.0,5.0,68,0.00,,,0.00,Rainwise IP-100,2013-04-16 02:41:00,
2013-04-15 22:46:00,42.0,32.0,30.44,SE,135,1.0,5.0,68,0.00,,,0.00,Rainwise IP-100,2013-04-16 02:46:00,
2013-04-15 22:51:00,42.0,32.0,30.44,SE,135,0.0,5.0,68,0.00,,,0.00,Rainwise IP-100,2013-04-16 02:51:00,
2013-04-15 22:56:00,42.0,32.0,30.44,ESE,112,3.0,7.0,67,0.00,,,0.00,Rainwise IP-100,2013-04-16 02:56:00,
2013-04-15 23:01:00,42.0,32.0,30.44,SSW,202,0.0,3.0,67,0.00,,,0.00,Rainwise IP-100,2013-04-16 03:01:00,
2013-04-15 23:07:00,42.0,32.0,30.44,South,180,5.0,6.0,66,0.00,,,0.00,Rainwise IP-100,2013-04-16 03:07:00,
2013-04-15 23:12:00,42.0,32.0,30.44,SE,135,1.0,7.0,66,0.00,,,0.00,Rainwise IP-100,2013-04-16 03:12:00,
2013-04-15 23:17:00,42.0,32.0,30.44,South,180,4.0,5.0,66,0.00,,,0.00,Rainwise IP-100,2013-04-16 03:17:00,
2013-04-15 23:22:00,42.0,32.0,30.44,SE,135,3.0,7.0,65,0.00,,,0.00,Rainwise IP-100,2013-04-16 03:22:00,
2013-04-15 23:27:00,42.0,32.0,30.44,ESE,112,0.0,6.0,65,0.00,,,0.00,Rainwise IP-100,2013-04-16 03:27:00,
2013-04-15 23:32:00,42.0,32.0,30.44,South,180,3.0,6.0,65,0.00,,,0.00,Rainwise IP-100,2013-04-16 03:32:00,
2013-04-15 23:37:00,42.0,31.0,30.44,South,180,1.0,4.0,64,0.00,,,0.00,Rainwise IP-100,2013-04-16 03:37:00,
2013-04-15 23:42:00,42.0,32.0,30.44,SE,135,1.0,5.0,65,0.00,,,0.00,Rainwise IP-100,2013-04-16 03:42:00,
2013-04-15 23:47:00,42.0,31.0,30.44,South,180,0.0,7.0,64,0.00,,,0.00,Rainwise IP-100,2013-04-16 03:47:00,
2013-04-15 23:52:00,42.0,31.0,30.44,South,180,2.0,10.0,63,0.00,,,0.00,Rainwise IP-100,2013-04-16 03:52:00,
2013-04-15 23:57:00,42.0,31.0,30.44,SE,135,0.0,10.0,63,0.00,,,0.00,Rainwise IP-100,2013-04-16 03:57:00,